Hourly Data Report for August 23, 2021

SECHELT AUT
BRITISH COLUMBIA
Current Station Operator: ECCC - MSC

49°27'28.788" N
123°42'54.945" W
86.20 m
1047172
71638
VOU

Download Data

Hourly Data (August 2021)
Hourly Data Report for August 23, 2021
TIME
LST
Temp Definition
°C
Dew Point Definition
°C
Rel Hum Definition
%
Precip. Amount Definition
mm

Wind Dir Definition
10's deg

Wind Spd Definition
km/h
Visibility Definition
km
Stn Press Definition
kPa
Hmdx Definition


Wind Chill Definition


Weather Definition


00:00 14.3 9.6 73 0.0 31 1   100.20     LegendNANA
01:00 14.8 9.9 72 0.0 1 3   100.25     LegendNANA
02:00 14.0 10.1 77 0.0   0   100.27     LegendNANA
03:00 12.9 11.0 88 0.0 8 1   100.30     LegendNANA
04:00 12.7 11.1 89 0.0 9 5   100.33     LegendNANA
05:00 12.9 11.1 89 0.0 11 4   100.37     LegendNANA
06:00 12.1 10.4 90 0.0   0   100.43     LegendNANA
07:00 14.6 11.3 81 0.0 10 6   100.48     LegendNANA
08:00 14.9 11.0 78 0.0 15 12   100.54     LegendNANA
09:00 15.0 11.1 77 0.0 15 15   100.61     LegendNANA
10:00 16.5 11.8 74 0.0 15 12   100.67     LegendNANA
11:00 16.0 11.8 76 0.0 16 10   100.69     LegendNANA
12:00 16.3 10.9 70 0.0 15 13   100.70     LegendNANA
13:00 18.9 13.2 69 0.0 15 10   100.72     LegendNANA
14:00 17.6 11.7 68 0.0 14 12   100.73     LegendNANA
15:00 18.4 11.8 66 0.0 15 13   100.71     LegendNANA
16:00 18.8 10.3 58 0.0 15 12   100.70     LegendNANA
17:00 18.2 9.8 58 0.0 16 8   100.68     LegendNANA
18:00 17.4 11.3 67 0.0 15 9   100.67     LegendNANA
19:00 15.7 11.3 75 0.0 12 3   100.68     LegendNANA
20:00 14.1 10.5 79 0.0 33 1   100.74     LegendNANA
21:00 12.9 10.1 83 0.0 32 4   100.75     LegendNANA
22:00 12.3 9.4 83 0.0 33 3   100.76     LegendNANA
23:00 11.5 9.3 86 0.0 1 2   100.76     LegendNANA

Notes on Data Quality.

Legend

  • E = Estimated
  • M = Missing
  • NA = Not Available*
  • [empty] = Indicates an unobserved value
Date modified: